Terug naar catalogus

STARLINK-35152

ActiefCommunicatieSSO
NORAD 65530·PAYLOAD·🇺🇸 United States

Gelanceerd Sep 6, 2025 vanaf Cape Canaveral Space Force Station

Loading…

Volgende Passages (komende 24 uur)

TLE

VersSource: CelesTrak SupGP

Epoch: Sep 14, 2026, 21:33 UTC

1 65530C 25200L   26257.89840278 -.00013123  00000+0 -40747-3 0  2579
2 65530  97.2844 324.3474 0001213  90.4410 192.5952 15.33439396    17

Volg STARLINK-35152 in realtime met AllMySat

Download on the App Store